Paynesville, MN

10:36 PM CDT on April 21, 2018 (GMT -0500)
Paynesville

Weather History for KPEX - July, 2013

Change the Weather History Date:

Saturday, July 13, 2013

  Actual Average (KLJF) Record (KLJF)
Temperature  
Mean Temperature 72 °F -  
Max Temperature 75 °F 84 °F 99 °F (1976)
Min Temperature 69 °F 61 °F 45 °F (1990)
Cooling Degree Days 8    
Growing Degree Days 22 (Base 50)    
Moisture  
Dew Point 65 °F    
Average Humidity 78    
Maximum Humidity 86    
Minimum Humidity 62    
Precipitation  
Precipitation 0.07 in - - ()
Sea Level Pressure  
Sea Level Pressure 29.98 in    
Wind  
Wind Speed 9 mph (SE)    
Max Wind Speed 17 mph    
Max Gust Speed 24 mph    
Visibility 10 miles    
Events Rain , Thunderstorm    
Averages and records for this station are not official NWS values.
T = Trace of Precipitation, MM = Missing Value Source: NWS Daily Summary

Daily Weather History Graph

Daily Weather History Graph

Search for Another Location

Airport or City:

Astronomy

Jul. 13, 2013 Rise Set
Actual Time 5:43 AM CDT 9:05 PM CDT
Civil Twilight 5:07 AM CDT 9:41 PM CDT
Nautical Twilight 4:19 AM CDT 10:29 PM CDT
Astronomical Twilight 3:18 AM CDT 11:29 PM CDT
Moon 11:18 AM CDT (7/13) 11:27 PM CDT (7/13)
Length of Visible Light 16h 34m
Length of Day
15h 21m
Waxing Crescent, 26% of the Moon is Illuminated
Jul 13
Waxing Crescent
Jul 15
First Quarter
Jul 22
Full
Jul 29
Last Quarter
Aug 6
New

Hourly Weather History & Observations

Time (CDT) Temp. Dew Point Humidity Pressure Visibility Wind Dir Wind Speed Gust Speed Precip Events Conditions
12:13 AM 76.5 °F 62.4 °F 62% 29.91 in 7.0 mi SSE 9.2 mph - 0.01 in Rain , Thunderstorm Heavy Thunderstorms and Rain
12:33 AM 76.1 °F 62.1 °F 62% 29.93 in 10.0 mi Calm Calm - 0.01 in Rain , Thunderstorm Light Thunderstorms and Rain
12:53 AM 74.1 °F 63.9 °F 70% 29.92 in 5.0 mi East 4.6 mph - 0.07 in Rain , Thunderstorm Rain
1:13 AM 72.7 °F 64.9 °F 77% 29.91 in 10.0 mi SSE 4.6 mph - N/A Rain , Thunderstorm Rain
1:33 AM 72.5 °F 64.6 °F 76% 29.90 in 10.0 mi SSE 5.8 mph - N/A Rain Rain
1:53 AM 72.3 °F 65.1 °F 78% 29.92 in 10.0 mi SE 5.8 mph - N/A Rain , Thunderstorm Rain
2:13 AM 72.0 °F 65.5 °F 80% 29.92 in 10.0 mi SE 6.9 mph - N/A Rain Rain
2:33 AM 71.6 °F 65.3 °F 80% 29.92 in 7.0 mi SE 6.9 mph - N/A Rain Rain
2:52 AM 71.6 °F 64.8 °F 79% 29.92 in 7.0 mi SSE 6.9 mph - N/A Rain Heavy Rain
3:13 AM 71.1 °F 65.1 °F 81% 29.92 in 10.0 mi SE 5.8 mph - N/A Rain Rain
3:33 AM 70.9 °F 65.3 °F 82% 29.93 in 10.0 mi SE 5.8 mph - N/A Rain , Thunderstorm Rain
3:53 AM 70.9 °F 64.9 °F 81% 29.93 in 10.0 mi ESE 8.1 mph - N/A Thunderstorm Overcast
4:13 AM 70.7 °F 64.8 °F 81% 29.93 in 10.0 mi ESE 10.4 mph - N/A Thunderstorm Mostly Cloudy
4:33 AM 70.7 °F 64.6 °F 81% 29.93 in 10.0 mi SE 10.4 mph - N/A   Clear
4:53 AM 70.5 °F 64.6 °F 81% 29.93 in 10.0 mi ESE 12.7 mph 17.3 mph N/A   Mostly Cloudy
5:12 AM 70.7 °F 64.4 °F 80% 29.93 in 10.0 mi SE 13.8 mph 18.4 mph N/A   Overcast
5:33 AM 70.3 °F 63.9 °F 80% 29.94 in 10.0 mi SE 12.7 mph 20.7 mph N/A   Overcast
5:53 AM 70.2 °F 63.9 °F 80% 29.94 in 10.0 mi SE 11.5 mph 19.6 mph N/A   Overcast
6:13 AM 70.2 °F 64.2 °F 81% 29.94 in 10.0 mi SE 11.5 mph 17.3 mph N/A   Overcast
6:33 AM 69.8 °F 64.6 °F 83% 29.95 in 10.0 mi SE 15.0 mph 19.6 mph N/A   Overcast
6:53 AM 69.8 °F 64.6 °F 83% 29.96 in 10.0 mi SE 17.3 mph 23.0 mph N/A   Overcast
7:13 AM 69.3 °F 64.0 °F 83% 29.97 in 10.0 mi SE 13.8 mph 24.2 mph N/A   Overcast
7:33 AM 69.3 °F 63.9 °F 83% 29.98 in 10.0 mi SE 15.0 mph 24.2 mph N/A   Overcast
7:53 AM 69.1 °F 64.0 °F 84% 29.98 in 10.0 mi SE 17.3 mph 21.9 mph N/A   Overcast
8:12 AM 69.1 °F 63.9 °F 83% 29.97 in 10.0 mi SE 17.3 mph 23.0 mph N/A Thunderstorm Overcast
8:33 AM 69.3 °F 63.7 °F 82% 29.98 in 10.0 mi SSE 16.1 mph 21.9 mph N/A   Overcast
8:53 AM 69.6 °F 63.7 °F 81% 29.97 in 10.0 mi SE 16.1 mph 24.2 mph N/A   Overcast
9:13 AM 69.8 °F 63.9 °F 81% 29.98 in 10.0 mi SSE 16.1 mph 23.0 mph N/A   Overcast
9:33 AM 70.2 °F 63.9 °F 80% 29.97 in 10.0 mi SSE 16.1 mph 23.0 mph N/A   Mostly Cloudy
9:53 AM 70.9 °F 64.4 °F 80% 29.97 in 10.0 mi SSE 15.0 mph 23.0 mph N/A   Scattered Clouds
10:12 AM 71.2 °F 64.6 °F 79% 29.98 in 10.0 mi SSE 12.7 mph 19.6 mph N/A   Scattered Clouds
10:33 AM 70.9 °F 64.4 °F 80% 29.99 in 10.0 mi SSE 15.0 mph 21.9 mph N/A   Overcast
10:53 AM 70.5 °F 63.9 °F 79% 29.99 in 10.0 mi SSE 11.5 mph 16.1 mph N/A   Overcast
11:13 AM 69.3 °F 63.0 °F 80% 30.00 in 10.0 mi South 8.1 mph 12.7 mph N/A Thunderstorm Overcast
11:33 AM 69.8 °F 63.7 °F 81% 30.00 in 10.0 mi South 4.6 mph - N/A   Overcast
11:53 AM 70.7 °F 63.9 °F 79% 30.00 in 10.0 mi South 10.4 mph - N/A   Overcast
12:13 PM 72.5 °F 64.0 °F 75% 30.00 in 10.0 mi South 10.4 mph - N/A   Overcast
12:33 PM 71.6 °F 63.9 °F 76% 29.99 in 10.0 mi South 9.2 mph - N/A   Overcast
12:53 PM 71.2 °F 63.7 °F 77% 29.97 in 10.0 mi SSE 10.4 mph 17.3 mph N/A   Mostly Cloudy
1:13 PM 71.8 °F 64.0 °F 77% 29.93 in 10.0 mi East 11.5 mph 17.3 mph N/A   Scattered Clouds
1:33 PM 71.6 °F 64.4 °F 78% 29.92 in 10.0 mi East 9.2 mph - N/A   Clear
1:53 PM 71.6 °F 64.6 °F 78% 29.98 in 10.0 mi SSE 4.6 mph - N/A   Scattered Clouds
2:13 PM 71.6 °F 64.9 °F 79% 30.02 in 10.0 mi SSW 4.6 mph - N/A   Mostly Cloudy
2:33 PM 71.2 °F 65.5 °F 82% 30.03 in 10.0 mi South 3.5 mph - N/A   Overcast
2:53 PM 71.1 °F 65.1 °F 81% 30.03 in 10.0 mi South 4.6 mph - N/A   Overcast
3:13 PM 71.4 °F 65.1 °F 80% 30.03 in 10.0 mi Calm Calm - N/A   Overcast
3:33 PM 72.0 °F 64.8 °F 78% 30.02 in 10.0 mi SSE 5.8 mph - N/A   Overcast
3:53 PM 71.8 °F 64.9 °F 79% 30.02 in 10.0 mi ESE 5.8 mph - N/A   Overcast
4:13 PM 72.1 °F 64.6 °F 77% 30.01 in 10.0 mi ESE 5.8 mph - N/A   Mostly Cloudy
4:33 PM 72.9 °F 64.9 °F 76% 30.01 in 10.0 mi ESE 6.9 mph - N/A   Clear
4:53 PM 73.2 °F 65.5 °F 77% 30.00 in 10.0 mi ESE 8.1 mph - N/A   Scattered Clouds
5:13 PM 73.6 °F 65.3 °F 75% 30.01 in 10.0 mi SE 10.4 mph - N/A   Scattered Clouds
5:33 PM 73.8 °F 64.9 °F 74% 30.02 in 10.0 mi SE 9.2 mph - N/A   Scattered Clouds
5:52 PM 73.8 °F 64.9 °F 74% 30.01 in 10.0 mi SE 10.4 mph - N/A   Scattered Clouds
6:13 PM 74.7 °F 65.1 °F 72% 30.01 in 10.0 mi SE 11.5 mph - N/A   Scattered Clouds
6:33 PM 75.0 °F 65.1 °F 71% 30.01 in 10.0 mi SE 8.1 mph - N/A   Clear
6:53 PM 75.6 °F 65.5 °F 71% 30.00 in 10.0 mi ESE 11.5 mph - N/A   Scattered Clouds
7:13 PM 75.4 °F 66.4 °F 73% 30.00 in 10.0 mi SE 5.8 mph - N/A   Scattered Clouds
7:33 PM 75.4 °F 67.3 °F 76% 30.00 in 10.0 mi East 12.7 mph - N/A   Scattered Clouds
7:53 PM 73.8 °F 67.6 °F 81% 29.99 in 10.0 mi East 8.1 mph - N/A   Overcast
8:13 PM 73.0 °F 67.5 °F 83% 29.99 in 10.0 mi ESE 8.1 mph - N/A   Overcast
8:33 PM 72.5 °F 67.3 °F 84% 29.99 in 10.0 mi ESE 6.9 mph - N/A   Mostly Cloudy
8:53 PM 72.3 °F 67.3 °F 84% 29.99 in 10.0 mi ESE 6.9 mph - N/A   Overcast
9:13 PM 72.0 °F 67.3 °F 85% 29.99 in 10.0 mi East 4.6 mph - N/A   Mostly Cloudy
9:33 PM 71.6 °F 67.1 °F 86% 30.01 in 10.0 mi East 4.6 mph - N/A   Scattered Clouds
9:53 PM 71.2 °F 65.1 °F 81% 30.02 in 10.0 mi ESE 6.9 mph - N/A   Clear
10:12 PM 70.9 °F 64.4 °F 80% 30.03 in 10.0 mi ESE 5.8 mph - N/A   Mostly Cloudy
10:33 PM 70.9 °F 63.1 °F 76% 30.04 in 10.0 mi ESE 6.9 mph - N/A   Overcast
10:53 PM 70.9 °F 62.2 °F 74% 30.04 in 10.0 mi ESE 8.1 mph - N/A   Overcast
11:13 PM 71.1 °F 61.2 °F 71% 30.05 in 10.0 mi SE 10.4 mph - N/A   Overcast
11:33 PM 71.1 °F 60.8 °F 70% 30.05 in 10.0 mi SE 9.2 mph - N/A   Overcast
11:53 PM 70.7 °F 60.6 °F 70% 30.06 in 10.0 mi SE 6.9 mph - N/A   Overcast